1500001200.0,40921,17.5,73858.3,-1.35,-37.39,-38.11,0,*5C
1500001201.28,40922,17.5,73858.3,-1.31,-37.39,-37.93,0,*5E
1500001202.54,40923,17.5,73856.0,-1.35,-37.15,-37.81,0,*56
1500001203.77,40924,17.5,73852.3,-1.31,-37.45,-38.17,0,*50
1500001205.02,40925,17.5,73858.8,-1.31,-37.45,-38.11,0,*57
1500001206.27,40926,17.5,73858.3,-1.35,-37.45,-38.11,0,*50
1500001207.5,40927,17.5,73856.3,-1.35,-37.15,-37.57,0,*59
1500001208.73,40928,17.5,73856.8,-1.35,-36.43,-37.03,0,*55
1500001209.99,40929,17.5,73856.8,-1.35,-37.03,-37.63,0,*57
1500001211.25,40930,17.5,73856.5,-1.35,-36.85,-37.39,0,*5F
1500001212.49,40931,17.5,73858.3,-1.35,-36.67,-37.33,0,*58
1500001213.72,40932,17.5,73856.8,-1.31,-36.85,-37.57,0,*51
1500001214.93,40933,17.5,73860.5,-1.29,-37.15,-37.87,0,*5C
1500001216.2,40934,17.5,73862.3,-1.35,-37.39,-38.11,0,*58
1500001217.43,40935,17.5,73856.8,-1.31,-37.33,-37.75,0,*5A
1500001218.68,40936,17.5,73856.3,-1.31,-37.33,-37.93,0,*51
1500001219.93,40937,17.5,73856.8,-1.31,-37.33,-37.93,0,*50
1500001221.19,40938,17.5,73860.5,-1.31,-37.33,-37.99,0,*55
1500001222.47,40939,17.5,73860.8,-1.31,-37.39,-37.93,0,*54
1500001223.74,40940,17.5,73862.3,-1.35,-37.39,-38.11,0,*5B
1500001225.0,40941,17.5,73864.0,-1.35,-37.45,-37.99,0,*5E
1500001226.26,40942,17.5,73858.5,-1.31,-37.15,-37.81,0,*55
1500001227.49,40943,17.5,73860.3,-1.35,-36.97,-37.57,0,*50
1500001228.75,40944,17.5,73860.3,-1.31,-37.39,-38.17,0,*5D
1500001230.02,40945,17.5,73858.3,-1.31,-37.39,-37.93,0,*5F
1500001231.31,40946,17.5,73860.3,-1.35,-36.49,-37.21,0,*57
1500001232.58,40947,17.5,73860.3,-1.31,-36.13,-36.79,0,*51
1500001233.83,40948,17.5,73862.3,-1.31,-35.65,-36.31,0,*50
1500001235.09,40949,17.5,73862.0,-1.27,-35.23,-35.77,0,*55
1500001236.32,40950,17.5,73862.8,-1.29,-35.41,-36.01,0,*55
1500001237.57,40951,17.5,73860.0,-1.27,-36.19,-36.91,0,*5D
1500001238.8,40952,17.5,73852.0,-1.27,-36.73,-37.33,0,*5B
1500001240.03,40953,17.5,73850.5,-1.25,-36.13,-36.73,0,*5B
1500001241.23,40954,17.5,73854.3,-1.25,-36.01,-36.67,0,*5A
1500001242.46,40955,17.5,73854.5,-1.25,-35.77,-36.37,0,*5C
1500001243.69,40956,17.5,73856.3,-1.23,-36.01,-36.73,0,*5B
1500001244.92,40957,17.5,73854.8,-1.23,-36.31,-37.03,0,*5F
1500001246.18,40958,17.5,73856.0,-1.23,-36.55,-37.21,0,*52
1500001247.4,40959,17.5,73854.0,-1.25,-36.91,-37.45,0,*5F
1500001248.66,40960,17.5,73852.8,-1.19,-37.09,-37.75,0,*59
1500001249.87,40961,17.5,73852.3,-1.21,-36.97,-37.57,0,*55
1500001251.1,40962,17.5,73852.3,-1.21,-37.03,-37.63,0,*5D
1500001252.34,40963,17.5,73852.0,-1.21,-37.03,-37.63,0,*5C
1500001253.56,40964,17.5,73854.3,-1.23,-37.27,-38.05,0,*50
1500001254.79,40965,17.5,73858.0,-1.23,-37.45,-38.05,0,*55
1500001256.02,40966,17.5,73858.3,-1.21,-37.27,-37.93,0,*50
1500001257.25,40967,17.5,73854.8,-1.23,-37.27,-37.87,0,*56
1500001258.52,40968,17.5,73858.3,-1.21,-37.21,-37.99,0,*52
1500001259.78,40969,17.5,73852.8,-1.23,-37.27,-37.99,0,*57
1500001261.0,40970,17.5,73854.8,-1.23,-37.33,-38.05,0,*50
1500001262.23,40971,17.5,73852.3,-1.25,-37.63,-38.17,0,*51
1500001263.48,40972,17.5,73854.5,-1.23,-37.63,-38.17,0,*54
1500001264.77,40973,17.5,73854.8,-1.23,-37.51,-37.99,0,*5D
1500001265.96,40974,17.5,73854.0,-1.25,-37.45,-38.05,0,*53
1500001267.22,40975,17.5,73856.3,-1.23,-37.45,-38.23,0,*50
1500001268.5,40976,17.5,73852.8,-1.23,-37.63,-38.23,0,*57
1500001269.73,40977,17.5,73852.0,-1.23,-37.33,-38.05,0,*57
1500001270.95,40978,17.5,73854.0,-1.23,-37.45,-38.05,0,*59
1500001272.21,40979,17.5,73852.8,-1.25,-37.51,-38.23,0,*5F
1500001273.43,40980,17.5,73852.5,-1.25,-37.51,-38.17,0,*5E
1500001274.69,40981,17.5,73854.5,-1.25,-37.63,-38.23,0,*59
1500001275.97,40982,17.5,73852.3,-1.27,-37.69,-38.29,0,*58
1500001277.23,40983,17.5,73852.3,-1.27,-37.57,-38.29,0,*54
1500001278.52,40984,17.5,73854.0,-1.27,-37.69,-38.29,0,*5E
1500001279.8,40985,17.5,73852.3,-1.27,-37.39,-38.23,0,*50
1500001281.09,40986,17.5,73854.0,-1.27,-37.51,-38.23,0,*5D
1500001282.37,40987,17.5,73852.5,-1.27,-37.51,-38.29,0,*56
1500001283.6,40988,17.5,73856.5,-1.29,-37.57,-38.23,0,*5B
1500001284.89,40989,17.5,73854.3,-1.27,-37.69,-38.29,0,*53
1500001286.12,40990,17.5,73854.3,-1.29,-37.57,-38.23,0,*52
1500001287.38,40991,17.5,73852.8,-1.27,-37.57,-38.23,0,*5D
1500001288.6,40992,17.5,73854.3,-1.29,-37.39,-38.05,0,*5C
1500001289.83,40993,17.5,73854.5,-1.29,-37.33,-37.93,0,*57
1500001291.08,40994,17.5,73858.8,-1.27,-37.39,-38.05,0,*54
1500001292.31,40995,17.5,73856.0,-1.29,-37.39,-38.05,0,*5B
1500001293.53,40996,17.5,73852.3,-1.29,-37.39,-38.05,0,*58
1500001294.76,40997,17.5,73858.5,-1.29,-37.51,-38.05,0,*57
1500001296.01,40998,17.5,73856.8,-1.29,-37.51,-38.11,0,*5D
1500001297.23,40999,17.5,73852.8,-1.29,-37.51,-38.05,0,*59
1500001298.44,41000,17.5,73854.8,-1.29,-37.27,-37.87,0,*55
1500001299.67,41001,17.5,73856.3,-1.29,-37.33,-37.93,0,*54
1500001300.92,41002,17.5,73856.8,-1.29,-37.09,-37.69,0,*5B
1500001302.13,41003,17.5,73858.3,-1.29,-37.27,-37.75,0,*5B
1500001303.33,41004,17.5,73860.0,-1.29,-37.27,-37.75,0,*5C
1500001304.56,41005,17.5,73858.0,-1.29,-36.79,-37.33,0,*55
1500001305.83,41006,17.5,73856.0,-1.27,-35.83,-36.37,0,*5B
1500001307.08,41007,17.5,73856.3,-1.27,-35.65,-36.07,0,*51
1500001308.29,41008,17.5,73856.8,-1.25,-35.77,-36.07,0,*5F
1500001309.54,41009,17.5,73852.3,-1.25,-35.95,-36.49,0,*58
1500001310.76,41010,17.5,73854.0,-1.25,-35.89,-36.37,0,*54
1500001312.01,41011,17.5,73854.0,-1.25,-35.95,-36.49,0,*51
1500001313.3,41012,17.5,73856.3,-1.23,-36.49,-37.09,0,*53
1500001314.52,41013,17.5,73856.0,-1.23,-36.67,-37.27,0,*52
1500001315.76,41014,17.5,73854.3,-1.23,-36.73,-37.27,0,*50
1500001316.98,41015,17.5,73856.3,-1.21,-36.79,-37.27,0,*59
1500001318.21,41016,17.5,73852.5,-1.19,-36.43,-36.97,0,*52
1500001319.46,41017,17.5,73854.8,-1.21,-36.79,-37.21,0,*5D
1500001320.74,41018,17.5,73854.8,-1.19,-36.79,-37.21,0,*59
1500001321.99,41019,17.5,73856.3,-1.19,-36.61,-37.15,0,*56
1500001323.27,41020,17.5,73858.0,-1.19,-36.25,-36.79,0,*57
1500001324.55,41021,17.5,73860.3,-1.19,-35.83,-36.25,0,*50
1500001325.8,41022,17.5,73856.5,-1.19,-36.01,-36.37,0,*59
1500001327.05,41023,17.5,73856.3,-1.19,-36.37,-36.97,0,*57
1500001328.33,41024,17.5,73858.3,-1.19,-36.91,-37.39,0,*59
1500001329.57,41025,17.5,73854.8,-1.15,-36.67,-37.09,0,*5E
1500001330.79,41026,17.5,73850.0,-1.15,-36.73,-37.27,0,*54
1500001332.01,41027,17.5,73856.0,-1.17,-37.09,-37.75,0,*5C
1500001333.24,41028,17.5,73856.5,-1.17,-36.97,-37.51,0,*53
1500001334.46,41029,17.5,73856.5,-1.15,-37.15,-37.87,0,*50
1500001335.68,41030,17.5,73854.5,-1.17,-37.33,-37.93,0,*5B
1500001336.92,41031,17.5,73858.3,-1.17,-37.21,-37.87,0,*5C
1500001338.12,41032,17.5,73858.3,-1.17,-37.15,-37.57,0,*55
1500001339.32,41033,17.5,73854.3,-1.17,-37.15,-37.75,0,*54
1500001340.58,41034,17.5,73856.0,-1.17,-37.09,-37.51,0,*58
1500001341.8,41035,17.5,73858.8,-1.17,-37.33,-37.93,0,*5E
1500001343.06,41036,17.5,73856.8,-1.17,-36.91,-37.39,0,*54
1500001344.31,41037,17.5,73856.3,-1.17,-36.61,-37.09,0,*59
1500001345.51,41038,17.5,73858.0,-1.17,-36.73,-37.33,0,*5C
1500001346.76,41039,17.5,73856.0,-1.17,-36.61,-37.21,0,*5D
1500001348.02,41040,17.5,73858.8,-1.17,-37.21,-37.93,0,*5F
1500001349.25,41041,17.5,73854.3,-1.17,-36.97,-37.39,0,*52
1500001350.48,41042,17.5,73856.8,-1.17,-36.79,-37.15,0,*5F
1500001351.74,41043,17.5,73854.0,-1.15,-36.37,-36.91,0,*5B
1500001352.97,41044,17.5,73854.0,-1.15,-37.03,-37.69,0,*5C
1500001354.18,41045,17.5,73858.0,-1.15,-37.33,-37.87,0,*5E
1500001355.4,41046,17.5,73854.0,-1.17,-37.39,-38.05,0,*50
1500001356.61,41047,17.5,73856.5,-1.17,-37.33,-37.87,0,*5E
1500001357.81,41048,17.5,73854.5,-1.17,-36.97,-37.57,0,*53
1500001359.01,41049,17.5,73854.3,-1.17,-36.73,-37.33,0,*5A
1500001360.27,41050,17.5,73852.5,-1.17,-36.91,-37.51,0,*5A
1500001361.49,41051,17.5,73854.0,-1.17,-37.15,-37.69,0,*5D
1500001362.72,41052,17.5,73852.3,-1.17,-36.91,-37.33,0,*5C
1500001363.97,41053,17.5,73852.5,-1.17,-37.09,-37.81,0,*54
1500001365.23,41054,17.5,73852.3,-1.17,-37.21,-37.93,0,*5A
1500001366.46,41055,17.5,73852.3,-1.15,-37.15,-37.69,0,*5B
1500001367.7,41056,17.5,73850.5,-1.15,-37.03,-37.63,0,*55
1500001368.96,41057,17.5,73852.0,-1.15,-37.09,-37.69,0,*54
1500001370.18,41058,17.5,73852.3,-1.17,-37.39,-38.05,0,*5F
1500001371.42,41059,17.5,73854.0,-1.17,-37.21,-37.75,0,*5F
1500001372.64,41060,17.5,73854.8,-1.17,-37.15,-37.69,0,*5F
1500001373.88,41061,17.5,73856.5,-1.13,-37.27,-37.87,0,*5B
1500001375.1,41062,17.5,73854.8,-1.17,-37.33,-37.93,0,*5C
1500001376.32,41063,17.5,73850.0,-1.17,-37.51,-38.05,0,*59
1500001377.54,41064,17.5,73854.0,-1.17,-37.39,-38.05,0,*50
1500001378.8,41065,17.5,73854.8,-1.17,-37.21,-37.93,0,*58
1500001379.99,41066,17.5,73854.3,-1.17,-37.33,-38.05,0,*58
1500001381.25,41067,17.5,73858.5,-1.17,-37.21,-37.93,0,*5A
1500001382.5,41068,17.5,73856.3,-1.19,-37.51,-38.05,0,*5C
1500001383.77,41069,17.5,73852.5,-1.19,-37.51,-38.11,0,*58
1500001384.98,41070,17.5,73852.8,-1.21,-37.75,-38.35,0,*5B
1500001386.23,41071,17.5,73852.8,-1.19,-37.57,-38.23,0,*56
1500001387.46,41072,17.5,73852.0,-1.19,-36.97,-37.57,0,*54
1500001388.69,41073,17.5,73856.3,-1.19,-37.15,-37.57,0,*5E
1500001389.93,41074,17.5,73854.0,-1.19,-35.89,-36.55,0,*5D
1500001391.18,41075,17.5,73852.3,-1.19,-35.41,-35.77,0,*5B
1500001392.46,41076,17.5,73854.3,-1.19,-35.83,-36.25,0,*52
1500001393.68,41077,17.5,73852.5,-1.15,-35.59,-36.01,0,*5E
1500001394.94,41078,17.5,73850.5,-1.11,-35.53,-35.95,0,*51
1500001396.17,41079,17.5,73852.5,-1.13,-35.77,-36.19,0,*53
1500001397.38,41080,17.5,73852.3,-1.11,-35.89,-36.43,0,*59
1500001398.59,41081,17.5,73852.8,-1.11,-36.31,-36.85,0,*52
1500001399.82,41082,17.5,73854.8,-1.13,-37.03,-37.57,0,*5D
1500001401.03,41083,17.5,73854.8,-1.11,-37.03,-37.57,0,*5E
1500001402.27,41084,17.5,73854.3,-1.11,-36.61,-37.03,0,*5D
1500001403.5,41085,17.5,73852.8,-1.11,-36.07,-36.61,0,*59
1500001404.76,41086,17.5,73850.5,-1.11,-35.95,-36.49,0,*58
1500001405.99,41087,17.5,73848.5,-1.11,-36.07,-36.61,0,*5B
1500001407.25,41088,17.5,73844.3,-1.07,-36.13,-36.79,0,*5F
1500001408.46,41089,17.5,73850.3,-1.07,-36.43,-36.85,0,*58
1500001409.71,41090,17.5,73852.8,-1.05,-36.79,-37.33,0,*57
1500001410.95,41091,17.5,73850.8,-1.07,-37.03,-37.63,0,*5D
1500001412.23,41092,17.5,73854.8,-1.05,-36.79,-37.39,0,*5F
1500001413.49,41093,17.5,73852.3,-1.05,-36.61,-37.15,0,*59
1500001414.74,41094,17.5,73854.3,-1.05,-36.79,-37.33,0,*53
1500001415.97,41095,17.5,73852.3,-1.05,-37.15,-37.75,0,*5B
1500001417.21,41096,17.5,73854.3,-1.05,-37.33,-37.87,0,*51
1500001418.49,41097,17.5,73854.8,-1.05,-37.39,-37.93,0,*5F
1500001419.72,41098,17.5,73856.8,-1.07,-37.45,-38.11,0,*5C
1500001420.96,41099,17.5,73856.5,-1.07,-37.09,-37.75,0,*58
1500001422.17,41100,17.5,73858.5,-1.07,-37.27,-37.75,0,*55
1500001423.4,41101,17.5,73856.8,-1.07,-37.63,-38.17,0,*5F
1500001424.64,41102,17.5,73858.3,-1.07,-37.09,-37.75,0,*5B
1500001425.88,41103,17.5,73852.8,-1.07,-37.09,-37.57,0,*5A
1500001427.1,41104,17.5,73852.3,-1.07,-36.97,-37.57,0,*5B
1500001428.34,41105,17.5,73852.5,-1.07,-37.03,-37.63,0,*51
1500001429.57,41106,17.5,73854.3,-1.05,-36.97,-37.57,0,*5B
1500001430.81,41107,17.5,73850.5,-1.07,-37.03,-37.63,0,*53
1500001432.05,41108,17.5,73852.8,-1.07,-37.45,-37.93,0,*51
1500001433.32,41109,17.5,73848.0,-1.07,-37.21,-37.81,0,*51
1500001434.56,41110,17.5,73848.3,-1.07,-37.27,-37.81,0,*5F
1500001435.82,41111,17.5,73850.3,-1.11,-37.39,-37.99,0,*5F
1500001437.07,41112,17.5,73850.0,-1.11,-37.39,-37.93,0,*56
1500001438.31,41113,17.5,73846.8,-1.11,-37.27,-37.81,0,*5B
1500001439.52,41114,17.5,73848.8,-1.07,-37.57,-38.17,0,*5C
1500001440.76,41115,17.5,73848.0,-1.07,-37.45,-37.99,0,*57
1500001441.99,41116,17.5,73848.5,-1.13,-37.45,-38.05,0,*5B
1500001443.25,41117,17.5,73848.8,-1.11,-37.63,-38.23,0,*58
1500001444.48,41118,17.5,73852.0,-1.11,-37.63,-38.17,0,*50
1500001445.74,41119,17.5,73850.3,-1.11,-37.63,-38.11,0,*57
1500001447.0,41120,17.5,73848.5,-1.13,-37.45,-37.99,0,*54
1500001448.23,41121,17.5,73852.3,-1.13,-37.45,-38.05,0,*5F
1500001449.49,41122,17.5,73848.8,-1.13,-37.45,-37.99,0,*56
1500001450.75,41123,17.5,73854.3,-1.11,-37.39,-37.81,0,*57
1500001452.01,41124,17.5,73854.8,-1.13,-37.69,-38.17,0,*57
1500001453.27,41125,17.5,73856.5,-1.13,-37.33,-37.99,0,*50
1500001454.53,41126,17.5,73858.3,-1.15,-37.51,-37.99,0,*51
1500001455.82,41127,17.5,73856.3,-1.13,-37.63,-38.23,0,*59
1500001457.03,41128,17.5,73860.5,-1.11,-37.75,-38.17,0,*54
1500001458.32,41129,17.5,73858.8,-1.13,-37.69,-38.23,0,*5D
1500001459.58,41130,17.5,73858.0,-1.13,-37.03,-37.51,0,*53
1500001460.87,41131,17.5,73854.5,-1.13,-37.09,-37.63,0,*59
1500001462.14,41132,17.5,73854.0,-1.13,-37.27,-37.81,0,*5A
1500001463.4,41133,17.5,73854.5,-1.13,-37.15,-37.81,0,*5A
1500001464.61,41134,17.5,73852.3,-1.15,-37.27,-37.87,0,*5C
1500001465.83,41135,17.5,73852.5,-1.15,-37.27,-37.87,0,*5D
1500001467.07,41136,17.5,73852.5,-1.15,-37.27,-37.81,0,*58
1500001468.36,41137,17.5,73848.5,-1.13,-37.09,-37.63,0,*5F
1500001469.6,41138,17.5,73852.3,-1.13,-37.27,-37.87,0,*56
1500001470.87,41139,17.5,73852.3,-1.13,-37.27,-37.99,0,*58
1500001472.13,41140,17.5,73854.3,-1.13,-37.15,-37.81,0,*5E
1500001473.37,41141,17.5,73850.5,-1.13,-37.15,-37.87,0,*59
1500001474.61,41142,17.5,73850.5,-1.13,-37.27,-37.87,0,*5B
1500001475.84,41143,17.5,73858.0,-1.13,-37.33,-37.87,0,*5F
1500001477.08,41144,17.5,73852.8,-1.13,-37.27,-37.87,0,*5D
1500001478.35,41145,17.5,73856.0,-1.13,-37.15,-37.99,0,*52
1500001479.59,41146,17.5,73852.8,-1.13,-37.33,-37.87,0,*5A
1500001480.82,41147,17.5,73856.8,-1.13,-37.27,-37.87,0,*5E
1500001482.08,41148,17.5,73856.3,-1.13,-37.15,-37.69,0,*50
1500001483.37,41149,17.5,73858.5,-1.13,-36.91,-37.51,0,*57
1500001484.61,41150,17.5,73860.8,-1.13,-36.67,-37.15,0,*56
1500001485.84,41151,17.5,73854.8,-1.11,-36.79,-37.27,0,*5B
1500001487.09,41152,17.5,73854.3,-1.11,-36.79,-37.21,0,*5E
1500001488.33,41153,17.5,73856.5,-1.13,-36.85,-37.27,0,*58
1500001489.57,41154,17.5,73856.0,-1.13,-37.27,-37.87,0,*5C
1500001490.77,41155,17.5,73852.0,-1.11,-36.85,-37.45,0,*58
1500001492.03,41156,17.5,73856.3,-1.13,-36.91,-37.33,0,*5D
1500001493.27,41157,17.5,73856.3,-1.11,-37.09,-37.75,0,*5C
1500001494.48,41158,17.5,73854.8,-1.11,-36.97,-37.57,0,*55
1500001495.75,41159,17.5,73856.0,-1.11,-37.21,-37.81,0,*53
1500001496.98,41160,17.5,73854.3,-1.13,-37.27,-37.87,0,*5B
1500001498.25,41161,17.5,73856.3,-1.11,-37.09,-37.63,0,*5E
1500001499.49,41162,17.5,73858.3,-1.13,-36.73,-37.27,0,*53
1500001500.69,41163,17.5,73858.0,-1.11,-37.03,-37.57,0,*51
1500001501.93,41164,17.5,73852.3,-1.11,-37.03,-37.63,0,*51
1500001503.14,41165,17.5,73850.8,-1.11,-36.97,-37.45,0,*58
1500001504.35,41166,17.5,73856.0,-1.11,-37.03,-37.57,0,*54
1500001505.59,41167,17.5,73856.3,-1.11,-37.03,-37.63,0,*52
1500001506.85,41168,17.5,73854.8,-1.11,-37.39,-37.81,0,*58
1500001508.08,41169,17.5,73852.5,-1.11,-37.09,-37.75,0,*51
1500001509.35,41170,17.5,73854.3,-1.11,-37.21,-37.81,0,*58
1500001510.56,41171,17.5,73854.3,-1.11,-37.57,-38.17,0,*58
1500001511.79,41172,17.5,73856.0,-1.11,-37.45,-37.99,0,*51
1500001513.05,41173,17.5,73856.8,-1.13,-37.33,-37.99,0,*53
1500001514.32,41174,17.5,73856.8,-1.11,-37.21,-37.81,0,*5C
1500001515.56,41175,17.5,73858.3,-1.13,-37.15,-37.87,0,*5E
1500001516.77,41176,17.5,73854.3,-1.11,-36.85,-37.27,0,*5D
1500001518.01,41177,17.5,73850.5,-1.13,-37.27,-37.87,0,*5D
1500001519.26,41178,17.5,73848.8,-1.11,-37.39,-37.93,0,*5A
1500001520.52,41179,17.5,73854.5,-1.13,-37.51,-38.17,0,*54
1500001521.76,41180,17.5,73852.5,-1.11,-37.75,-38.23,0,*51
1500001522.97,41181,17.5,73854.8,-1.11,-37.75,-38.35,0,*57
1500001524.26,41182,17.5,73856.0,-1.13,-37.81,-38.29,0,*50
1500001525.5,41183,17.5,73856.0,-1.13,-37.45,-37.87,0,*52
1500001526.77,41184,17.5,73854.8,-1.13,-37.15,-37.81,0,*56
1500001528.0,41185,17.5,73858.5,-1.11,-37.09,-37.75,0,*53
1500001529.26,41186,17.5,73854.0,-1.11,-37.39,-37.99,0,*51
1500001530.53,41187,17.5,73854.0,-1.13,-37.81,-38.43,0,*59
1500001531.83,41188,17.5,73856.0,-1.13,-37.81,-38.29,0,*5A
1500001533.09,41189,17.5,73858.8,-1.13,-37.69,-38.17,0,*50
1500001534.35,41190,17.5,73856.8,-1.13,-37.63,-38.17,0,*52
1500001535.63,41191,17.5,73858.5,-1.13,-37.69,-38.23,0,*5E
1500001536.92,41192,17.5,73856.3,-1.13,-37.69,-38.23,0,*5D
1500001538.16,41193,17.5,73854.0,-1.15,-37.69,-38.17,0,*5D
1500001539.41,41194,17.5,73856.8,-1.17,-37.09,-37.51,0,*53
1500001540.63,41195,17.5,73856.3,-1.15,-37.27,-37.87,0,*57
1500001541.86,41196,17.5,73858.0,-1.15,-37.63,-38.05,0,*51
1500001543.13,41197,17.5,73850.8,-1.15,-37.69,-38.23,0,*5E
1500001544.36,41198,17.5,73854.0,-1.15,-37.51,-38.05,0,*5E
1500001545.57,41199,17.5,73854.0,-1.15,-37.27,-37.87,0,*5B
1500001546.84,41200,17.5,73854.0,-1.13,-37.45,-37.99,0,*55
1500001548.05,41201,17.5,73852.3,-1.15,-37.33,-37.87,0,*5C
1500001549.29,41202,17.5,73848.0,-1.17,-37.21,-37.87,0,*5E
1500001550.53,41203,17.5,73854.5,-1.15,-37.15,-37.63,0,*50
1500001551.74,41204,17.5,73854.0,-1.15,-37.45,-38.05,0,*5D
1500001553.0,41205,17.5,73852.3,-1.15,-37.63,-38.23,0,*5C
1500001554.24,41206,17.5,73852.8,-1.15,-37.51,-38.17,0,*59
1500001555.5,41207,17.5,73854.8,-1.15,-37.09,-37.51,0,*58
1500001556.76,41208,17.5,73854.5,-1.13,-37.45,-37.99,0,*5D
1500001558.03,41209,17.5,73852.3,-1.15,-37.69,-38.23,0,*5A
1500001559.29,41210,17.5,73858.0,-1.15,-37.63,-38.23,0,*58
1500001560.52,41211,17.5,73852.5,-1.17,-37.75,-38.23,0,*5C
1500001561.79,41212,17.5,73852.5,-1.15,-37.69,-38.23,0,*50
1500001562.99,41213,17.5,73858.3,-1.15,-37.45,-38.17,0,*58
1500001564.25,41214,17.5,73856.3,-1.17,-37.69,-38.29,0,*5E
1500001565.48,41215,17.5,73858.8,-1.17,-37.87,-38.49,0,*59
1500001566.72,41216,17.5,73856.0,-1.15,-37.33,-37.99,0,*55
1500001567.94,41217,17.5,73854.3,-1.15,-37.27,-37.87,0,*5E
1500001569.17,41218,17.5,73852.8,-1.15,-37.45,-37.99,0,*5A
1500001570.4,41219,17.5,73850.5,-1.17,-37.75,-38.29,0,*5E
1500001571.67,41220,17.5,73852.3,-1.15,-37.69,-38.23,0,*51
1500001572.93,41221,17.5,73854.0,-1.17,-37.81,-38.29,0,*5E
1500001574.16,41222,17.5,73852.5,-1.17,-37.75,-38.23,0,*5C
1500001575.41,41223,17.5,73854.5,-1.17,-37.69,-38.29,0,*5A
1500001576.65,41224,17.5,73854.0,-1.19,-37.87,-38.35,0,*5E
1500001577.88,41225,17.5,73856.5,-1.19,-37.75,-38.35,0,*52
1500001579.13,41226,17.5,73854.8,-1.19,-37.57,-38.11,0,*57
1500001580.39,41227,17.5,73854.8,-1.19,-37.87,-38.49,0,*56
1500001581.64,41228,17.5,73854.5,-1.19,-37.75,-38.49,0,*54
1500001582.89,41229,17.5,73854.8,-1.19,-37.57,-38.23,0,*59
1500001584.14,41230,17.5,73854.0,-1.21,-37.63,-38.11,0,*5C
1500001585.39,41231,17.5,73852.0,-1.19,-37.39,-38.05,0,*5C
1500001586.64,41232,17.5,73852.8,-1.19,-37.51,-38.05,0,*51
1500001587.89,41233,17.5,73852.8,-1.19,-37.51,-38.05,0,*50
1500001589.11,41234,17.5,73858.0,-1.21,-37.57,-38.11,0,*5F
1500001590.39,41235,17.5,73854.3,-1.19,-37.39,-38.11,0,*5D
1500001591.59,41236,17.5,73854.8,-1.21,-37.57,-38.17,0,*5B
1500001592.84,41237,17.5,73854.8,-1.19,-37.39,-38.05,0,*5A
1500001594.06,41238,17.5,73852.5,-1.21,-37.45,-37.93,0,*55
1500001595.27,41239,17.5,73854.8,-1.21,-37.75,-38.35,0,*54
1500001596.51,41240,17.5,73856.3,-1.21,-37.81,-38.43,0,*50
1500001597.73,41241,17.5,73852.3,-1.21,-37.45,-38.11,0,*5E
1500001598.96,41242,17.5,73858.0,-1.21,-37.57,-38.11,0,*5E
1500001600.23,41243,17.5,73852.3,-1.19,-37.51,-38.11,0,*52
1500001601.47,41244,17.5,73856.3,-1.21,-37.81,-38.35,0,*55
1500001602.7,41245,17.5,73856.5,-1.21,-37.63,-38.17,0,*58
1500001603.92,41246,17.5,73852.5,-1.23,-37.45,-38.05,0,*5E
1500001605.18,41247,17.5,73856.3,-1.21,-37.39,-37.99,0,*5C
1500001606.41,41248,17.5,73852.3,-1.21,-37.27,-37.93,0,*56
1500001607.64,41249,17.5,73852.3,-1.21,-37.75,-38.29,0,*5E
1500001608.88,41250,17.5,73854.3,-1.23,-37.87,-38.43,0,*55
1500001610.11,41251,17.5,73854.0,-1.23,-37.27,-37.87,0,*59
1500001611.37,41252,17.5,73854.3,-1.23,-37.45,-37.99,0,*51
1500001612.63,41253,17.5,73854.8,-1.21,-37.21,-37.93,0,*5A
1500001613.88,41254,17.5,73854.5,-1.21,-36.79,-37.39,0,*51
1500001615.14,41255,17.5,73854.3,-1.21,-36.79,-37.39,0,*50
1500001616.42,41256,17.5,73854.0,-1.19,-36.25,-36.79,0,*54
1500001617.65,41257,17.5,73854.8,-1.21,-36.13,-36.67,0,*54
1500001618.93,41258,17.5,73854.8,-1.19,-35.83,-36.25,0,*5C
1500001620.21,41259,17.5,73850.5,-1.19,-36.61,-37.39,0,*5E
1500001621.46,41260,17.5,73852.0,-1.19,-36.79,-37.33,0,*57
1500001622.71,41261,17.5,73854.8,-1.19,-36.97,-37.69,0,*59
1500001623.96,41262,17.5,73854.3,-1.17,-37.21,-37.93,0,*5D
1500001625.21,41263,17.5,73852.3,-1.17,-37.39,-37.93,0,*55
1500001626.46,41264,17.5,73852.5,-1.17,-37.51,-38.11,0,*59
1500001627.72,41265,17.5,73854.3,-1.17,-37.69,-38.23,0,*52
1500001628.94,41266,17.5,73852.8,-1.17,-37.15,-37.69,0,*5B
1500001630.16,41267,17.5,73854.5,-1.17,-37.15,-37.69,0,*5A
1500001631.42,41268,17.5,73852.0,-1.19,-36.61,-37.15,0,*52
1500001632.64,41269,17.5,73850.5,-1.17,-36.79,-37.33,0,*50
1500001633.84,41270,17.5,73848.0,-1.17,-36.97,-37.57,0,*5A
1500001635.07,41271,17.5,73848.0,-1.15,-36.91,-37.45,0,*5C
1500001636.28,41272,17.5,73848.3,-1.15,-36.85,-37.45,0,*5A
1500001637.5,41273,17.5,73852.3,-1.15,-36.97,-37.57,0,*5B
1500001638.77,41274,17.5,73848.0,-1.15,-37.09,-37.63,0,*5D
1500001639.97,41275,17.5,73848.5,-1.17,-36.73,-37.33,0,*57
1500001641.22,41276,17.44,73842.3,-1.17,-36.91,-37.39,0,*52
1500001642.43,41277,17.5,73850.5,-1.15,-36.67,-37.27,0,*57
1500001643.65,41278,17.5,73844.3,-1.15,-36.55,-37.15,0,*58
1500001644.88,41279,17.5,73848.3,-1.13,-36.85,-37.33,0,*56
1500001646.15,41280,17.5,73846.0,-1.13,-37.15,-37.81,0,*51
1500001647.41,41281,17.5,73850.5,-1.13,-37.45,-37.99,0,*5C
1500001648.65,41282,17.5,73850.3,-1.13,-37.27,-37.87,0,*54
1500001649.89,41283,17.5,73848.5,-1.13,-37.15,-37.87,0,*54
1500001651.1,41284,17.5,73848.8,-1.15,-37.45,-37.87,0,*50
1500001652.34,41285,17.5,73848.0,-1.15,-37.33,-37.99,0,*5F
1500001653.57,41286,17.5,73848.5,-1.15,-37.51,-38.05,0,*52
1500001654.81,41287,17.5,73850.3,-1.15,-37.33,-37.99,0,*5D
1500001656.02,41288,17.5,73846.8,-1.15,-37.33,-38.05,0,*58
1500001657.27,41289,17.5,73848.0,-1.17,-36.91,-37.51,0,*5C
1500001658.51,41290,17.5,73848.3,-1.15,-36.91,-37.33,0,*52
1500001659.71,41291,17.5,73850.3,-1.11,-37.03,-37.45,0,*5C
1500001660.97,41292,17.5,73848.8,-1.13,-37.03,-37.51,0,*58
1500001662.21,41293,17.5,73844.5,-1.15,-37.03,-37.63,0,*5E
1500001663.45,41294,17.5,73846.0,-1.13,-36.85,-37.45,0,*54
1500001664.68,41295,17.5,73846.0,-1.13,-37.33,-37.87,0,*57
1500001665.91,41296,17.5,73848.3,-1.13,-37.45,-38.05,0,*50
1500001667.17,41297,17.5,73850.3,-1.13,-37.45,-37.93,0,*51
1500001668.46,41298,17.5,73852.0,-1.13,-37.81,-38.23,0,*52
1500001669.7,41299,17.5,73848.8,-1.13,-37.27,-37.87,0,*5E
1500001670.96,41300,17.5,73854.3,-1.13,-37.51,-38.05,0,*5B
1500001672.22,41301,17.5,73848.3,-1.13,-37.63,-38.17,0,*58
1500001673.48,41302,17.5,73852.3,-1.13,-37.51,-38.17,0,*5A
1500001674.72,41303,17.5,73850.5,-1.13,-36.73,-37.15,0,*57
1500001676.0,41304,17.5,73850.8,-1.13,-36.49,-36.91,0,*54
1500001677.25,41305,17.5,73854.3,-1.13,-36.79,-37.27,0,*5A
1500001678.49,41306,17.5,73852.8,-1.13,-36.67,-37.27,0,*56
1500001679.73,41307,17.5,73854.0,-1.11,-36.67,-37.21,0,*53
1500001680.96,41308,17.5,73854.0,-1.13,-36.55,-37.15,0,*58
1500001682.2,41309,17.5,73854.3,-1.11,-36.85,-37.39,0,*58
1500001683.44,41310,17.5,73854.8,-1.11,-36.25,-36.85,0,*5C
1500001684.7,41311,17.5,73854.0,-1.05,-35.89,-36.25,0,*57
1500001685.94,41312,17.5,73852.5,-1.07,-35.71,-36.25,0,*51
1500001687.17,41313,17.5,73856.3,-1.05,-36.19,-36.73,0,*5C
1500001688.41,41314,17.5,73858.3,-1.05,-36.07,-36.55,0,*50
1500001689.69,41315,17.5,73852.8,-1.05,-36.25,-36.79,0,*5F
1500001690.9,41316,17.5,73854.8,-1.03,-36.55,-37.03,0,*51
1500001692.15,41317,17.5,73852.8,-1.01,-36.49,-36.97,0,*53
1500001693.39,41318,17.5,73852.8,-1.03,-36.61,-37.15,0,*5F
1500001694.63,41319,17.5,73852.8,-1.03,-36.97,-37.51,0,*57
1500001695.89,41320,17.5,73852.0,-1.03,-36.61,-37.21,0,*53
1500001697.12,41321,17.5,73854.3,-1.01,-36.73,-37.33,0,*50
1500001698.41,41322,17.5,73858.0,-1.01,-36.49,-37.09,0,*53
1500001699.64,41323,17.5,73858.0,-1.01,-36.55,-36.97,0,*59
1500001700.92,41324,17.44,73850.3,-1.01,-36.37,-36.91,0,*5C
1500001702.16,41325,17.5,73852.3,-1.01,-36.67,-37.15,0,*55
1500001703.4,41326,17.5,73852.3,-1.01,-36.67,-37.15,0,*56
1500001704.63,41327,17.5,73850.5,-1.01,-36.85,-37.33,0,*5F